When you browse on this site, cookies collect data to enhance your experience and personalize the content and advertising you see.
Visit our Privacy Policy to learn more. By continuing to use the site, you agree to this use of cookies and data.
  • In Czech Republic
  • List of Countries
  • For 7 days
  • Water Temperature
  • Satellite Maps
  • Weather Map
  • Weather Widgets
  • user-avatar
    Login

    Hourly Weather Warwick

    Today, 20 July, Saturday

    Time Temperature Precipitation Wind Pressure Humidity
    00:00 +27°C° 0 mm 3 mps 755 mmHg 89%
    01:00 +27°C° 0 mm 2 mps 755 mmHg 88%
    02:00 +26°C° 0 mm 2 mps 755 mmHg 89%
    03:00 +26°C° 0 mm 2 mps 754 mmHg 89%
    04:00 +26°C° 0 mm 2 mps 754 mmHg 90%
    05:00 +27°C° 0 mm 3 mps 755 mmHg 84%
    06:00 +29°C° 0 mm 3 mps 755 mmHg 77%
    07:00 +30°C° 0 mm 3 mps 755 mmHg 71%
    08:00 +31°C° 0 mm 3 mps 755 mmHg 64%
    09:00 +34°C° 0 mm 3 mps 755 mmHg 58%
    10:00 +36°C° 0 mm 2 mps 755 mmHg 51%
    11:00 +37°C° 0 mm 3 mps 755 mmHg 49%
    12:00 +37°C° 0 mm 3 mps 755 mmHg 47%
    13:00 +38°C° 0 mm 3 mps 755 mmHg 45%
    14:00 +38°C° 0 mm 4 mps 754 mmHg 46%
    15:00 +38°C° 0 mm 4 mps 754 mmHg 48%
    16:00 +37°C° 0 mm 5 mps 753 mmHg 49%
    17:00 +35°C° 0.1 mm 4 mps 754 mmHg 57%
    18:00 +33°C° 0.1 mm 4 mps 754 mmHg 65%
    19:00 +30°C° 0.1 mm 4 mps 754 mmHg 73%
    20:00 +29°C° 0 mm 4 mps 754 mmHg 74%
    21:00 +29°C° 0 mm 4 mps 754 mmHg 76%
    22:00 +28°C° 0 mm 4 mps 754 mmHg 77%
    23:00 +28°C° 0 mm 3 mps 754 mmHg 79%

    Tomorrow, 21 July, Sunday

    Time Temperature Precipitation Wind Pressure Humidity
    00:00 +28°C° 0 mm 3 mps 754 mmHg 81%
    01:00 +27°C° 0 mm 2 mps 754 mmHg 84%
    02:00 +27°C° 0 mm 2 mps 754 mmHg 84%
    03:00 +27°C° 0 mm 3 mps 754 mmHg 84%
    04:00 +27°C° 0 mm 3 mps 754 mmHg 84%
    05:00 +28°C° 0 mm 3 mps 754 mmHg 82%
    06:00 +29°C° 0 mm 3 mps 754 mmHg 79%
    07:00 +30°C° 0 mm 3 mps 754 mmHg 76%
    08:00 +33°C° 0 mm 3 mps 754 mmHg 68%
    09:00 +34°C° 0 mm 4 mps 754 mmHg 59%
    10:00 +36°C° 0 mm 4 mps 754 mmHg 51%
    11:00 +37°C° 0 mm 4 mps 754 mmHg 48%
    12:00 +38°C° 0 mm 4 mps 754 mmHg 44%
    13:00 +40°C° 0 mm 4 mps 753 mmHg 41%
    14:00 +40°C° 0 mm 5 mps 753 mmHg 43%
    15:00 +39°C° 0 mm 5 mps 753 mmHg 44%
    16:00 +39°C° 0 mm 5 mps 753 mmHg 45%
    17:00 +34°C° 1.2 mm 5 mps 753 mmHg 57%
    18:00 +29°C° 1.2 mm 5 mps 754 mmHg 69%
    19:00 +26°C° 1.2 mm 5 mps 754 mmHg 81%
    20:00 +26°C° 0.1 mm 5 mps 754 mmHg 82%
    21:00 +26°C° 0.1 mm 4 mps 754 mmHg 83%
    22:00 +26°C° 0.1 mm 3 mps 755 mmHg 85%
    23:00 +26°C° 0 mm 3 mps 755 mmHg 82%

    Day after tomorrow, 22 July, Monday

    Time Temperature Precipitation Wind Pressure Humidity
    00:00 +25°C° 0 mm 3 mps 755 mmHg 79%
    01:00 +25°C° 0 mm 2 mps 755 mmHg 77%
    02:00 +24°C° 0 mm 2 mps 755 mmHg 75%
    03:00 +24°C° 0 mm 2 mps 755 mmHg 74%
    04:00 +23°C° 0 mm 1 mps 756 mmHg 72%
    05:00 +25°C° 0 mm 1 mps 756 mmHg 68%
    06:00 +26°C° 0 mm 1 mps 756 mmHg 64%
    07:00 +27°C° 0 mm 1 mps 757 mmHg 60%
    08:00 +29°C° 0 mm 1 mps 757 mmHg 54%
    09:00 +30°C° 0 mm 0 mps 757 mmHg 47%
    10:00 +32°C° 0 mm 0 mps 757 mmHg 41%
    11:00 +34°C° 0.1 mm 1 mps 756 mmHg 42%
    12:00 +33°C° 0.1 mm 1 mps 756 mmHg 44%
    13:00 +34°C° 0.1 mm 2 mps 756 mmHg 46%
    14:00 +31°C° 0.2 mm 2 mps 756 mmHg 53%
    15:00 +30°C° 0.2 mm 3 mps 756 mmHg 60%
    16:00 +28°C° 0.2 mm 3 mps 756 mmHg 67%
    17:00 +27°C° 0.2 mm 3 mps 755 mmHg 74%
    18:00 +25°C° 0.2 mm 2 mps 755 mmHg 81%
    19:00 +24°C° 0.2 mm 2 mps 755 mmHg 87%
    20:00 +24°C° 0.6 mm 2 mps 755 mmHg 89%
    21:00 +23°C° 0.6 mm 2 mps 754 mmHg 91%
    22:00 +23°C° 0.6 mm 1 mps 754 mmHg 93%
    23:00 +23°C° 0.2 mm 1 mps 754 mmHg 93%

    23 July, Tuesday

    Time Temperature Precipitation Wind Pressure Humidity
    00:00 +22°C° 0.2 mm 1 mps 753 mmHg 94%
    01:00 +22°C° 0.2 mm 1 mps 753 mmHg 94%
    02:00 +22°C° 0.1 mm 1 mps 753 mmHg 94%
    03:00 +22°C° 0.1 mm 1 mps 753 mmHg 94%
    04:00 +22°C° 0.1 mm 1 mps 753 mmHg 95%
    05:00 +22°C° 0.9 mm 1 mps 753 mmHg 95%
    06:00 +23°C° 0.9 mm 1 mps 753 mmHg 96%
    07:00 +23°C° 0.9 mm 1 mps 753 mmHg 96%
    08:00 +23°C° 3.7 mm 2 mps 753 mmHg 96%
    09:00 +22°C° 3.7 mm 3 mps 753 mmHg 97%
    10:00 +22°C° 3.7 mm 4 mps 753 mmHg 97%
    11:00 +21°C° 2.6 mm 4 mps 753 mmHg 96%
    12:00 +21°C° 2.6 mm 3 mps 753 mmHg 95%
    13:00 +20°C° 2.6 mm 3 mps 754 mmHg 93%
    14:00 +20°C° 0 mm 3 mps 754 mmHg 89%
    15:00 +20°C° 0 mm 3 mps 754 mmHg 85%
    16:00 +21°C° 0 mm 3 mps 755 mmHg 81%
    17:00 +20°C° 0 mm 2 mps 755 mmHg 82%
    18:00 +20°C° 0 mm 2 mps 756 mmHg 82%
    19:00 +19°C° 0 mm 2 mps 756 mmHg 83%
    20:00 +19°C° 0 mm 1 mps 756 mmHg 86%
    21:00 +19°C° 0 mm 1 mps 757 mmHg 88%
    22:00 +18°C° 0 mm 1 mps 757 mmHg 91%
    23:00 +18°C° 0 mm 1 mps 757 mmHg 91%

    24 July, Wednesday

    Time Temperature Precipitation Wind Pressure Humidity
    00:00 +18°C° 0 mm 1 mps 757 mmHg 90%
    01:00 +16°C° 0 mm 0 mps 757 mmHg 90%
    02:00 +16°C° 0 mm 0 mps 757 mmHg 89%
    03:00 +16°C° 0 mm 0 mps 757 mmHg 88%
    04:00 +16°C° 0 mm 0 mps 757 mmHg 88%
    05:00 +17°C° 0 mm 0 mps 758 mmHg 83%
    06:00 +18°C° 0 mm 0 mps 758 mmHg 79%
    07:00 +20°C° 0 mm 0 mps 758 mmHg 74%
    08:00 +21°C° 0 mm 0 mps 758 mmHg 69%
    09:00 +25°C° 0 mm 1 mps 759 mmHg 65%
    10:00 +27°C° 0 mm 1 mps 759 mmHg 60%
    11:00 +27°C° 0.5 mm 1 mps 759 mmHg 60%
    12:00 +27°C° 0.5 mm 1 mps 758 mmHg 60%
    13:00 +28°C° 0.5 mm 1 mps 758 mmHg 60%
    14:00 +27°C° 0.3 mm 2 mps 758 mmHg 64%
    15:00 +26°C° 0.3 mm 2 mps 758 mmHg 67%
    16:00 +25°C° 0.3 mm 3 mps 758 mmHg 70%
    17:00 +24°C° 0.1 mm 3 mps 758 mmHg 75%
    18:00 +23°C° 0.1 mm 2 mps 759 mmHg 81%
    19:00 +21°C° 0.1 mm 2 mps 759 mmHg 86%
    20:00 +21°C° 0 mm 1 mps 759 mmHg 87%
    21:00 +21°C° 0 mm 1 mps 760 mmHg 89%
    22:00 +18°C° 0 mm 0 mps 760 mmHg 90%
    23:00 +20°C° 0 mm 1 mps 760 mmHg 90%

    25 July, Thursday

    Time Temperature Precipitation Wind Pressure Humidity
    00:00 +19°C° 0 mm 1 mps 760 mmHg 91%
    01:00 +19°C° 0 mm 1 mps 760 mmHg 92%
    02:00 +18°C° 0 mm 2 mps 760 mmHg 88%
    03:00 +17°C° 0 mm 2 mps 761 mmHg 84%
    04:00 +17°C° 0 mm 3 mps 761 mmHg 80%
    05:00 +18°C° 0 mm 3 mps 762 mmHg 77%
    06:00 +18°C° 0 mm 3 mps 762 mmHg 73%
    07:00 +19°C° 0 mm 3 mps 763 mmHg 69%
    08:00 +21°C° 0 mm 3 mps 763 mmHg 63%
    09:00 +24°C° 0 mm 3 mps 763 mmHg 56%
    10:00 +25°C° 0 mm 2 mps 763 mmHg 49%
    11:00 +27°C° 0 mm 2 mps 763 mmHg 47%
    12:00 +28°C° 0 mm 2 mps 763 mmHg 44%
    13:00 +29°C° 0 mm 1 mps 763 mmHg 41%
    14:00 +28°C° 0 mm 2 mps 763 mmHg 46%
    15:00 +27°C° 0 mm 2 mps 763 mmHg 50%
    16:00 +26°C° 0 mm 3 mps 763 mmHg 55%
    17:00 +24°C° 0 mm 2 mps 764 mmHg 61%
    18:00 +23°C° 0 mm 2 mps 764 mmHg 68%
    19:00 +20°C° 0 mm 2 mps 764 mmHg 75%
    20:00 +20°C° 0 mm 1 mps 765 mmHg 77%
    21:00 +20°C° 0 mm 1 mps 765 mmHg 79%
    22:00 +19°C° 0 mm 1 mps 765 mmHg 81%
    23:00 +19°C° 0 mm 1 mps 765 mmHg 82%
    Show more